Weather History for KERY - April, 2014

Change the Weather History Date:

Friday, April 25, 2014

  Actual Average Record
Temperature  
Mean Temperature 38 °F -  
Max Temperature 43 °F 56 °F 82 °F (1915)
Min Temperature 32 °F 32 °F 18 °F (1967)
Degree Days  
Heating Degree Days 28    
Moisture  
Dew Point 32 °F    
Average Humidity 89    
Maximum Humidity 100    
Minimum Humidity 69    
Precipitation  
Precipitation 0.09 in - - ()
Sea Level Pressure  
Sea Level Pressure 29.77 in    
Wind  
Wind Speed 8 mph (SE)    
Max Wind Speed 13 mph    
Max Gust Speed 20 mph    
Visibility 8 miles    
Events Rain , Snow    
Averages and records for this station are not official NWS values.
T = Trace of Precipitation, MM = Missing Value Source: NWS Daily Summary

Daily Weather History Graph

Daily Weather History Graph

Search for Another Location

Airport or City:

Trip Planner

Search our weather history database for the weather conditions in past years. The results will help you decide how hot, cold, wet, or windy it might be!

Date:

Astronomy

Apr. 25, 2014 Rise Set
Actual Time 6:37 AM EDT 8:42 PM EDT
Civil Twilight 6:05 AM EDT 9:15 PM EDT
Nautical Twilight 5:24 AM EDT 9:55 PM EDT
Astronomical Twilight 4:40 AM EDT 10:40 PM EDT
Moon 4:39 AM EDT (4/25) 4:51 PM EDT (4/25)
Length of Visible Light 15h 10m
Length of Day
14h 05m
Waning Crescent, 15% of the Moon is Illuminated
Apr 25
Waning Crescent
Apr 29
New
May 6
First Quarter
May 14
Full
May 21
Last Quarter

Hourly Weather History & Observations

Time (EDT) Temp. Windchill Dew Point Humidity Pressure Visibility Wind Dir Wind Speed Gust Speed Precip Events Conditions
12:15 AM 32.0 °F 24.2 °F 32.0 °F 100% 29.95 in 10.0 mi ENE 9.2 mph - N/A   Overcast
12:34 AM 32.0 °F 23.0 °F 32.0 °F 100% 29.94 in 10.0 mi ENE 11.5 mph 17.3 mph N/A   Overcast
12:54 AM 32.4 °F 23.5 °F 32.0 °F 99% 29.93 in 10.0 mi ENE 11.5 mph - N/A   Overcast
1:15 AM 32.9 °F 25.9 °F 32.0 °F 96% 29.91 in 10.0 mi East 8.1 mph - N/A   Overcast
1:34 AM 32.7 °F 25.7 °F 32.0 °F 97% 29.90 in 10.0 mi East 8.1 mph - N/A   Overcast
1:55 AM 32.7 °F 26.4 °F 31.8 °F 96% 29.88 in 10.0 mi East 6.9 mph - N/A   Overcast
2:14 AM 32.9 °F 25.3 °F 31.6 °F 95% 29.87 in 10.0 mi East 9.2 mph - N/A   Overcast
2:35 AM 32.9 °F 24.7 °F 31.5 °F 94% 29.84 in 10.0 mi ENE 10.4 mph - N/A   Overcast
2:54 AM 32.9 °F 25.3 °F 31.1 °F 93% 29.84 in 10.0 mi East 9.2 mph - N/A   Overcast
3:15 AM 33.1 °F 25.5 °F 30.7 °F 91% 29.82 in 10.0 mi East 9.2 mph - N/A   Overcast
3:34 AM 33.4 °F 24.8 °F 30.2 °F 88% 29.82 in 10.0 mi East 11.5 mph 16.1 mph N/A   Overcast
3:55 AM 33.3 °F 24.6 °F 30.2 °F 89% 29.82 in 10.0 mi East 11.5 mph - N/A   Overcast
4:15 AM 33.6 °F 26.8 °F 29.7 °F 85% 29.82 in 10.0 mi ESE 8.1 mph - N/A   Overcast
4:34 AM 33.4 °F 27.3 °F 29.8 °F 87% 29.82 in 10.0 mi SE 6.9 mph - N/A   Overcast
4:55 AM 33.4 °F 28.1 °F 29.3 °F 85% 29.81 in 10.0 mi East 5.8 mph - N/A   Overcast
5:15 AM 32.9 °F 28.5 °F 30.2 °F 90% 29.81 in 10.0 mi East 4.6 mph - N/A   Overcast
5:34 AM 32.9 °F 27.5 °F 30.2 °F 90% 29.80 in 10.0 mi ENE 5.8 mph - N/A   Overcast
5:55 AM 32.5 °F 28.1 °F 30.7 °F 93% 29.79 in 10.0 mi East 4.6 mph - N/A   Overcast
6:14 AM 32.5 °F 27.1 °F 30.9 °F 94% 29.79 in 10.0 mi East 5.8 mph - N/A   Overcast
6:35 AM 32.5 °F 24.8 °F 30.7 °F 93% 29.79 in 10.0 mi East 9.2 mph - N/A   Overcast
6:55 AM 33.1 °F 25.5 °F 30.0 °F 89% 29.79 in 1.5 mi ESE 9.2 mph 18.4 mph N/A Snow Light Snow
7:14 AM 32.7 °F 24.5 °F 30.2 °F 90% 29.79 in 1.8 mi ESE 10.4 mph - N/A Snow Light Snow
7:35 AM 32.5 °F 24.2 °F 30.2 °F 91% 29.78 in 5.0 mi ESE 10.4 mph - N/A Snow Light Snow
7:54 AM 32.5 °F 23.7 °F 30.4 °F 92% 29.78 in 1.5 mi ESE 11.5 mph 17.3 mph N/A Snow Light Snow
8:14 AM 32.0 °F 23.6 °F 31.5 °F 98% 29.78 in 1.2 mi ESE 10.4 mph - N/A Snow Light Snow
8:35 AM 32.0 °F 23.0 °F 31.8 °F 99% 29.77 in 1.0 mi ESE 11.5 mph - 0.01 in Snow Light Snow
8:54 AM 32.0 °F 22.5 °F 31.8 °F 99% 29.76 in 1.2 mi ESE 12.7 mph - 0.01 in Snow Light Snow
9:15 AM 32.2 °F 22.7 °F 31.8 °F 99% 29.76 in 4.0 mi ESE 12.7 mph - N/A Snow Light Snow
9:34 AM 32.4 °F 24.6 °F 31.6 °F 97% 29.75 in 10.0 mi ESE 9.2 mph - N/A   Overcast
9:55 AM 32.9 °F 25.9 °F 31.6 °F 95% 29.75 in 10.0 mi ESE 8.1 mph - N/A   Overcast
10:15 AM 33.8 °F 25.3 °F 30.9 °F 89% 29.74 in 10.0 mi ESE 11.5 mph 16.1 mph N/A   Overcast
10:34 AM 34.3 °F 25.5 °F 31.3 °F 89% 29.73 in 10.0 mi SE 12.7 mph 17.3 mph N/A   Overcast
10:55 AM 34.7 °F 25.9 °F 31.1 °F 87% 29.74 in 10.0 mi SE 12.7 mph 18.4 mph N/A   Overcast
11:15 AM 34.9 °F 26.2 °F 31.3 °F 87% 29.74 in 10.0 mi SE 12.7 mph 19.6 mph N/A   Overcast
11:34 AM 35.1 °F 26.4 °F 31.3 °F 86% 29.74 in 10.0 mi SE 12.7 mph 18.4 mph N/A   Overcast
11:55 AM 35.1 °F 27.9 °F 31.5 °F 87% 29.74 in 10.0 mi SE 9.2 mph - N/A   Overcast
12:14 PM 35.2 °F 29.5 °F 31.5 °F 86% 29.74 in 10.0 mi SE 6.9 mph - N/A   Overcast
12:35 PM 35.8 °F 29.4 °F 31.5 °F 84% 29.74 in 10.0 mi SE 8.1 mph - N/A   Overcast
12:55 PM 36.0 °F 30.3 °F 31.1 °F 82% 29.74 in 10.0 mi SE 6.9 mph - N/A   Overcast
1:14 PM 36.5 °F 30.3 °F 31.1 °F 81% 29.73 in 10.0 mi ESE 8.1 mph - N/A   Overcast
1:35 PM 36.9 °F 30.7 °F 31.3 °F 80% 29.73 in 10.0 mi ESE 8.1 mph - N/A   Overcast
1:54 PM 37.4 °F 32.8 °F 31.8 °F 80% 29.73 in 10.0 mi SE 5.8 mph - N/A   Overcast
2:15 PM 38.3 °F 33.2 °F 31.6 °F 77% 29.73 in 10.0 mi SE 6.9 mph - N/A   Overcast
2:35 PM 39.7 °F 34.9 °F 32.4 °F 75% 29.72 in 10.0 mi SE 6.9 mph - N/A   Overcast
2:54 PM 40.5 °F 34.6 °F 33.1 °F 75% 29.71 in 10.0 mi SE 9.2 mph - N/A   Overcast
3:15 PM 41.4 °F 36.8 °F 33.1 °F 72% 29.71 in 10.0 mi SE 6.9 mph - N/A   Overcast
3:34 PM 42.3 °F 37.9 °F 33.6 °F 71% 29.71 in 10.0 mi SE 6.9 mph - N/A   Overcast
3:54 PM 43.3 °F 38.6 °F 34.2 °F 70% 29.71 in 10.0 mi South 8.1 mph 17.3 mph N/A   Scattered Clouds
4:15 PM 43.5 °F 38.3 °F 34.0 °F 69% 29.71 in 10.0 mi SSW 9.2 mph 17.3 mph N/A   Mostly Cloudy
4:34 PM 43.2 °F 40.5 °F 34.0 °F 70% 29.71 in 10.0 mi SSE 4.6 mph - N/A   Overcast
4:55 PM 43.3 °F 38.6 °F 34.5 °F 71% 29.71 in 10.0 mi SSW 8.1 mph - N/A   Overcast
5:15 PM 42.3 °F 38.6 °F 34.5 °F 74% 29.71 in 10.0 mi South 5.8 mph 9.2 mph N/A   Overcast
5:34 PM 41.9 °F 38.2 °F 32.9 °F 70% 29.71 in 10.0 mi South 5.8 mph - N/A   Overcast
5:55 PM 40.6 °F 36.7 °F 32.4 °F 72% 29.70 in 10.0 mi South 5.8 mph - N/A   Overcast
6:15 PM 39.4 °F 35.2 °F 32.5 °F 76% 29.70 in 10.0 mi SSE 5.8 mph - N/A   Overcast
6:34 PM 38.5 °F 33.4 °F 33.8 °F 83% 29.70 in 5.0 mi SSE 6.9 mph - N/A Rain Light Rain
6:55 PM 37.0 °F 31.6 °F 34.2 °F 89% 29.71 in 5.0 mi SSE 6.9 mph - N/A Rain Light Rain
7:14 PM 36.1 °F 31.4 °F 34.3 °F 93% 29.71 in 4.0 mi SSE 5.8 mph - N/A Rain Light Rain
7:34 PM 35.6 °F 29.2 °F 34.3 °F 95% 29.72 in 3.0 mi SSW 8.1 mph - 0.02 in Rain Light Rain
7:55 PM 35.1 °F 27.4 °F 34.2 °F 97% 29.73 in 2.5 mi SW 10.4 mph - 0.04 in   Overcast
8:14 PM 35.1 °F 28.6 °F 34.0 °F 96% 29.74 in 4.0 mi SW 8.1 mph - 0.01 in Rain Light Rain
8:34 PM 34.9 °F 29.0 °F 33.8 °F 96% 29.74 in 4.0 mi WSW 6.9 mph - 0.01 in Rain Light Rain
8:55 PM 34.9 °F 29.0 °F 33.8 °F 96% 29.75 in 7.0 mi West 6.9 mph - 0.02 in Rain Light Rain
9:14 PM 34.9 °F - 34.3 °F 98% 29.75 in 5.0 mi Calm Calm - N/A Rain Light Rain
9:34 PM 34.7 °F - 34.0 °F 97% 29.76 in 4.0 mi Calm Calm - 0.01 in Rain Light Rain
9:54 PM 34.2 °F - 33.8 °F 99% 29.76 in 4.0 mi Calm Calm - 0.02 in Rain Light Rain
10:14 PM 34.2 °F - 34.0 °F 99% 29.77 in 4.0 mi Calm Calm - N/A Rain Light Rain
10:35 PM 33.8 °F - 33.4 °F 99% 29.77 in 3.0 mi Calm Calm - N/A Rain Light Rain
10:54 PM 33.4 °F - 33.3 °F 99% 29.77 in 3.0 mi Calm Calm - N/A Rain Light Rain
11:15 PM 33.3 °F 30.2 °F 33.1 °F 99% 29.77 in 3.0 mi NNE 3.5 mph - N/A Rain Light Rain
11:34 PM 32.9 °F - 32.9 °F 100% 29.77 in 3.0 mi Calm Calm - N/A   Light Drizzle
11:55 PM 32.9 °F - 32.5 °F 99% 29.77 in 3.0 mi Calm Calm - N/A Rain Light Rain